EDW11A MDPP-MKJS

Flight info

Callsign EDW11A
Flight time 1h 20m
Altitude 36000
Route RETAK3C RETAK UM348 ALBBE DCT BODLO DCT BYGON UL599 DAVOL/N0462F410 UL599 MLY/N0390F240 A301 SAVEM UW6 SIA OMAXI7
Aircraft A343/H-SDE2E3FGHIJ4J5M1RWXY/LB1D1

Departure

Time 2026-04-23 12:43
Airport Gregorio Luperon International Airport (MDPP)

Arrival

Time 2026-04-23 14:04
Airport Sangster International Airport (MKJS)
Time Latitude Longitude Altitude Speed Heading
2026-04-23 11:57 19.75493 -70.56526 39 ft 0 kts 39°
2026-04-23 12:25 19.75474 -70.56540 35 ft 4 kts 22°
2026-04-23 12:25 19.75449 -70.56546 35 ft 4 kts 351°
2026-04-23 12:25 19.75424 -70.56536 35 ft 4 kts 321°
2026-04-23 12:26 19.75420 -70.56532 35 ft 0 kts 319°
2026-04-23 12:33 19.75421 -70.56533 35 ft 1 kts 319°
2026-04-23 12:33 19.75449 -70.56556 37 ft 9 kts 320°
2026-04-23 12:34 19.75517 -70.56604 38 ft 15 kts 339°
2026-04-23 12:34 19.75618 -70.56656 39 ft 13 kts 296°
2026-04-23 12:34 19.75603 -70.56768 39 ft 18 kts 252°
2026-04-23 12:34 19.75559 -70.56917 38 ft 24 kts 252°
2026-04-23 12:35 19.75570 -70.57085 38 ft 25 kts 311°
2026-04-23 12:35 19.75633 -70.57156 38 ft 0 kts 313°
2026-04-23 12:39 19.75662 -70.57189 37 ft 13 kts 313°
2026-04-23 12:39 19.75692 -70.57314 37 ft 24 kts 258°
2026-04-23 12:40 19.75637 -70.57517 36 ft 34 kts 253°
2026-04-23 12:40 19.75560 -70.57784 39 ft 41 kts 253°
2026-04-23 12:40 19.75470 -70.58095 41 ft 47 kts 253°
2026-04-23 12:40 19.75365 -70.58353 40 ft 10 kts 255°
2026-04-23 12:41 19.75380 -70.58357 40 ft 2 kts 19°
2026-04-23 12:41 19.75405 -70.58317 40 ft 11 kts 72°
2026-04-23 12:41 19.75411 -70.58297 40 ft 0 kts 71°
2026-04-23 12:42 19.75422 -70.58262 40 ft 25 kts 71°
2026-04-23 12:42 19.75542 -70.57849 40 ft 90 kts 73°
2026-04-23 12:43 19.75781 -70.57019 39 ft 143 kts 72°
2026-04-23 12:43 19.76098 -70.55951 503 ft 147 kts 72°
2026-04-23 12:43 19.76399 -70.54932 1156 ft 148 kts 75°
2026-04-23 12:43 19.76722 -70.53789 1465 ft 178 kts 74°
2026-04-23 12:44 19.77261 -70.52445 1691 ft 219 kts 54°
2026-04-23 12:44 19.78566 -70.51500 2266 ft 245 kts 22°
2026-04-23 12:44 19.80235 -70.50977 3211 ft 253 kts 19°
2026-04-23 12:44 19.81954 -70.50484 4156 ft 260 kts 18°
2026-04-23 12:45 19.83723 -70.49961 5065 ft 267 kts 17°
2026-04-23 12:45 19.85527 -70.49412 5839 ft 273 kts 16°
2026-04-23 12:45 19.87368 -70.48842 6784 ft 278 kts 16°
2026-04-23 12:45 19.89232 -70.48261 7731 ft 281 kts 16°
2026-04-23 12:46 19.91120 -70.47675 8673 ft 284 kts 15°
2026-04-23 12:46 19.93083 -70.47336 9610 ft 288 kts
2026-04-23 12:46 19.95101 -70.47224 10387 ft 296 kts
2026-04-23 12:46 19.97219 -70.47428 10746 ft 318 kts 346°
2026-04-23 12:47 19.99313 -70.48368 11032 ft 338 kts 326°
2026-04-23 12:47 20.01040 -70.50116 11550 ft 349 kts 305°
2026-04-23 12:47 20.02098 -70.52445 12233 ft 354 kts 284°
2026-04-23 12:47 20.02308 -70.55050 12988 ft 357 kts 264°
2026-04-23 12:48 20.01655 -70.57602 13704 ft 361 kts 248°
2026-04-23 12:48 20.00933 -70.60183 14331 ft 366 kts 262°
2026-04-23 12:48 20.00824 -70.62882 15099 ft 366 kts 270°
2026-04-23 12:48 20.00880 -70.65594 15923 ft 365 kts 271°
2026-04-23 12:49 20.00958 -70.68258 16761 ft 365 kts 272°
2026-04-23 12:49 20.01041 -70.70977 17375 ft 371 kts 272°
2026-04-23 12:49 20.01126 -70.73734 18037 ft 376 kts 272°
2026-04-23 12:49 20.01208 -70.76525 18636 ft 380 kts 272°
2026-04-23 12:50 20.01286 -70.79340 19294 ft 382 kts 272°
2026-04-23 12:50 20.01364 -70.82171 19905 ft 384 kts 272°
2026-04-23 12:50 20.01443 -70.85021 20489 ft 387 kts 272°
2026-04-23 12:50 20.01523 -70.87890 21098 ft 389 kts 272°
2026-04-23 12:51 20.01602 -70.90773 21724 ft 391 kts 272°
2026-04-23 12:51 20.01682 -70.93678 22320 ft 393 kts 272°
2026-04-23 12:51 20.01762 -70.96592 22905 ft 396 kts 272°
2026-04-23 12:51 20.01842 -70.99527 23483 ft 398 kts 272°
2026-04-23 12:52 20.01922 -71.02484 23983 ft 401 kts 272°
2026-04-23 12:52 20.02002 -71.05451 24451 ft 403 kts 272°
2026-04-23 12:52 20.02081 -71.08435 24923 ft 405 kts 272°
2026-04-23 12:52 20.02172 -71.11432 25388 ft 407 kts 273°
2026-04-23 12:53 20.02480 -71.14389 25831 ft 409 kts 280°
2026-04-23 12:53 20.03203 -71.17364 26287 ft 412 kts 286°
2026-04-23 12:53 20.04089 -71.20225 26722 ft 414 kts 287°
2026-04-23 12:53 20.05017 -71.23130 27138 ft 416 kts 287°
2026-04-23 12:54 20.05949 -71.26052 27548 ft 418 kts 287°
2026-04-23 12:54 20.06880 -71.28988 27964 ft 420 kts 287°
2026-04-23 12:54 20.07815 -71.31941 28359 ft 423 kts 286°
2026-04-23 12:54 20.08752 -71.34911 28762 ft 425 kts 286°
2026-04-23 12:55 20.09693 -71.37897 29143 ft 427 kts 286°
2026-04-23 12:55 20.10638 -71.40897 29521 ft 429 kts 286°
2026-04-23 12:55 20.11588 -71.43917 29894 ft 431 kts 286°
2026-04-23 12:55 20.12542 -71.46953 30228 ft 433 kts 286°
2026-04-23 12:56 20.13501 -71.50006 30548 ft 435 kts 285°
2026-04-23 12:56 20.14447 -71.53015 30982 ft 432 kts 284°
2026-04-23 12:56 20.15391 -71.56030 31411 ft 428 kts 285°
2026-04-23 12:56 20.16357 -71.59033 31663 ft 429 kts 285°
2026-04-23 12:57 20.17319 -71.62049 31907 ft 431 kts 284°
2026-04-23 12:57 20.18254 -71.65072 32322 ft 429 kts 284°
2026-04-23 12:57 20.19191 -71.68076 32774 ft 427 kts 285°
2026-04-23 12:57 20.20275 -71.71014 33227 ft 426 kts 288°
2026-04-23 12:58 20.21439 -71.73903 33658 ft 424 kts 289°
2026-04-23 12:58 20.22638 -71.76773 34087 ft 423 kts 289°
2026-04-23 12:58 20.23847 -71.79621 34418 ft 421 kts 289°
2026-04-23 12:58 20.25054 -71.82460 34711 ft 421 kts 289°
2026-04-23 12:59 20.26256 -71.85298 35004 ft 420 kts 289°
2026-04-23 12:59 20.27448 -71.88137 35303 ft 419 kts 288°
2026-04-23 12:59 20.28591 -71.90985 35593 ft 417 kts 287°
2026-04-23 12:59 20.29710 -71.93833 35863 ft 416 kts 288°
2026-04-23 13:00 20.30827 -71.96683 36048 ft 418 kts 288°
2026-04-23 13:00 20.31952 -71.99524 36065 ft 415 kts 289°
2026-04-23 13:00 20.34166 -72.05116 36062 ft 410 kts 286°
2026-04-23 13:01 20.35555 -72.10940 36056 ft 402 kts 273°
2026-04-23 13:01 20.35313 -72.16820 36061 ft 396 kts 257°
2026-04-23 13:02 20.33569 -72.22376 36055 ft 396 kts 248°
2026-04-23 13:02 20.31338 -72.27752 36051 ft 397 kts 246°
2026-04-23 13:03 20.29053 -72.33102 36055 ft 396 kts 246°
2026-04-23 13:03 20.26803 -72.38463 36052 ft 396 kts 247°
2026-04-23 13:04 20.24578 -72.43834 36056 ft 396 kts 247°
2026-04-23 13:04 20.22371 -72.49172 36058 ft 398 kts 247°
2026-04-23 13:05 20.20129 -72.54589 36055 ft 400 kts 247°
2026-04-23 13:05 20.17879 -72.60015 36056 ft 400 kts 247°
2026-04-23 13:06 20.14505 -72.68138 36055 ft 400 kts 246°
2026-04-23 13:07 20.12257 -72.73545 36057 ft 400 kts 246°
2026-04-23 13:07 20.10005 -72.78955 36057 ft 400 kts 246°
2026-04-23 13:08 20.07751 -72.84364 36058 ft 400 kts 246°
2026-04-23 13:08 20.05497 -72.89770 36060 ft 400 kts 246°
2026-04-23 13:09 20.03245 -72.95164 36060 ft 400 kts 246°
2026-04-23 13:09 20.00984 -73.00572 36058 ft 400 kts 246°
2026-04-23 13:10 19.98727 -73.05967 36050 ft 399 kts 246°
2026-04-23 13:10 19.96468 -73.11363 36053 ft 401 kts 246°
2026-04-23 13:11 19.94209 -73.16754 36051 ft 402 kts 246°
2026-04-23 13:11 19.91930 -73.22183 36048 ft 402 kts 246°
2026-04-23 13:12 19.89651 -73.27607 36048 ft 402 kts 246°
2026-04-23 13:12 19.87370 -73.33032 36049 ft 402 kts 246°
2026-04-23 13:13 19.85088 -73.38453 36047 ft 402 kts 246°
2026-04-23 13:13 19.82804 -73.43875 36048 ft 402 kts 246°
2026-04-23 13:14 19.80518 -73.49295 36042 ft 402 kts 246°
2026-04-23 13:14 19.78227 -73.54722 36043 ft 402 kts 246°
2026-04-23 13:15 19.75939 -73.60137 36042 ft 402 kts 246°
2026-04-23 13:15 19.73647 -73.65554 36048 ft 402 kts 246°
2026-04-23 13:16 19.71355 -73.70965 36009 ft 402 kts 246°
2026-04-23 13:16 19.69059 -73.76385 36036 ft 404 kts 246°
2026-04-23 13:17 19.66746 -73.81836 36038 ft 405 kts 246°
2026-04-23 13:17 19.64429 -73.87292 36043 ft 405 kts 246°
2026-04-23 13:18 19.62127 -73.92706 36039 ft 405 kts 246°
2026-04-23 13:18 19.59807 -73.98159 36036 ft 405 kts 246°
2026-04-23 13:19 19.57486 -74.03604 36037 ft 405 kts 246°
2026-04-23 13:19 19.55168 -74.09040 36036 ft 404 kts 246°
2026-04-23 13:20 19.52847 -74.14481 36043 ft 404 kts 246°
2026-04-23 13:20 19.50526 -74.19913 36036 ft 404 kts 246°
2026-04-23 13:21 19.48205 -74.25341 36033 ft 404 kts 246°
2026-04-23 13:21 19.45880 -74.30771 36033 ft 404 kts 246°
2026-04-23 13:22 19.43570 -74.36164 36044 ft 405 kts 246°
2026-04-23 13:22 19.41233 -74.41611 36028 ft 406 kts 246°
2026-04-23 13:23 19.38891 -74.47067 36028 ft 406 kts 246°
2026-04-23 13:23 19.36945 -74.51596 36029 ft 406 kts 246°
2026-04-23 13:24 19.34601 -74.57045 36028 ft 406 kts 246°
2026-04-23 13:24 19.32255 -74.62494 36029 ft 406 kts 246°
2026-04-23 13:25 19.29906 -74.67944 36035 ft 406 kts 246°
2026-04-23 13:25 19.27561 -74.73380 36026 ft 406 kts 246°
2026-04-23 13:26 19.25212 -74.78822 36028 ft 406 kts 246°
2026-04-23 13:26 19.22862 -74.84259 36032 ft 406 kts 246°
2026-04-23 13:27 19.20527 -74.89656 36029 ft 406 kts 246°
2026-04-23 13:27 19.18174 -74.95089 36036 ft 406 kts 246°
2026-04-23 13:28 19.15816 -75.00530 36032 ft 407 kts 245°
2026-04-23 13:28 19.13448 -75.05987 36035 ft 409 kts 245°
2026-04-23 13:29 19.11075 -75.11451 36031 ft 409 kts 246°
2026-04-23 13:29 19.08703 -75.16907 36033 ft 408 kts 245°
2026-04-23 13:30 19.06330 -75.22361 36031 ft 408 kts 245°
2026-04-23 13:30 19.03955 -75.27812 36032 ft 408 kts 245°
2026-04-23 13:31 19.01596 -75.33224 36028 ft 408 kts 245°
2026-04-23 13:31 18.99218 -75.38673 36029 ft 408 kts 245°
2026-04-23 13:32 18.96839 -75.44118 36031 ft 408 kts 246°
2026-04-23 13:32 18.94463 -75.49554 36029 ft 407 kts 246°
2026-04-23 13:33 18.92086 -75.54985 36028 ft 407 kts 245°
2026-04-23 13:33 18.89708 -75.60412 36028 ft 407 kts 245°
2026-04-23 13:34 18.87323 -75.65853 36030 ft 410 kts 245°
2026-04-23 13:34 18.84921 -75.71327 36031 ft 411 kts 245°
2026-04-23 13:35 18.82427 -75.76761 36026 ft 412 kts 240°
2026-04-23 13:35 18.78985 -75.81597 36027 ft 413 kts 231°
2026-04-23 13:36 18.75120 -75.86041 36027 ft 414 kts 229°
2026-04-23 13:36 18.71150 -75.90445 36023 ft 414 kts 229°
2026-04-23 13:37 18.67187 -75.94858 36021 ft 414 kts 229°
2026-04-23 13:37 18.63242 -75.99284 36021 ft 414 kts 229°
2026-04-23 13:38 18.59311 -76.03701 35789 ft 410 kts 229°
2026-04-23 13:38 18.57352 -76.05902 35079 ft 413 kts 229°
2026-04-23 13:38 18.55375 -76.08124 34357 ft 418 kts 229°
2026-04-23 13:38 18.53407 -76.10387 33624 ft 420 kts 232°
2026-04-23 13:39 18.51651 -76.12844 32863 ft 421 kts 238°
2026-04-23 13:39 18.50222 -76.15535 32079 ft 422 kts 246°
2026-04-23 13:39 18.49190 -76.18435 31319 ft 424 kts 254°
2026-04-23 13:39 18.48607 -76.21479 30678 ft 424 kts 262°
2026-04-23 13:40 18.48349 -76.24567 30107 ft 422 kts 265°
2026-04-23 13:40 18.48249 -76.27650 29475 ft 420 kts 268°
2026-04-23 13:40 18.48222 -76.30724 28844 ft 418 kts 268°
2026-04-23 13:40 18.48214 -76.33780 28247 ft 416 kts 268°
2026-04-23 13:41 18.48202 -76.36773 27657 ft 413 kts 268°
2026-04-23 13:41 18.48158 -76.39794 27070 ft 411 kts 268°
2026-04-23 13:41 18.48096 -76.42792 26505 ft 408 kts 268°
2026-04-23 13:41 18.48034 -76.45777 25937 ft 406 kts 268°
2026-04-23 13:42 18.47976 -76.48730 25660 ft 401 kts 268°
2026-04-23 13:42 18.47918 -76.51676 25423 ft 403 kts 268°
2026-04-23 13:42 18.47860 -76.54627 25192 ft 403 kts 268°
2026-04-23 13:42 18.47803 -76.57574 24964 ft 402 kts 268°
2026-04-23 13:43 18.47746 -76.60512 24728 ft 401 kts 268°
2026-04-23 13:43 18.47688 -76.63445 24515 ft 400 kts 268°
2026-04-23 13:43 18.47630 -76.66374 24296 ft 400 kts 268°
2026-04-23 13:43 18.47572 -76.69301 24075 ft 399 kts 268°
2026-04-23 13:44 18.47514 -76.72219 23857 ft 398 kts 268°
2026-04-23 13:44 18.47455 -76.75134 23641 ft 397 kts 268°
2026-04-23 13:44 18.47396 -76.78042 23389 ft 397 kts 268°
2026-04-23 13:44 18.47337 -76.80947 23130 ft 396 kts 268°
2026-04-23 13:45 18.47277 -76.83842 22872 ft 395 kts 268°
2026-04-23 13:45 18.47218 -76.86696 22622 ft 394 kts 268°
2026-04-23 13:45 18.47158 -76.89575 22362 ft 393 kts 268°
2026-04-23 13:45 18.47097 -76.92443 22104 ft 391 kts 268°
2026-04-23 13:46 18.47037 -76.95308 21868 ft 391 kts 268°
2026-04-23 13:46 18.46975 -76.98166 21628 ft 390 kts 268°
2026-04-23 13:46 18.46914 -77.01020 21374 ft 389 kts 268°
2026-04-23 13:46 18.46852 -77.03866 21131 ft 388 kts 268°
2026-04-23 13:47 18.46791 -77.06703 20888 ft 387 kts 268°
2026-04-23 13:47 18.46728 -77.09532 20653 ft 386 kts 268°
2026-04-23 13:47 18.46666 -77.12354 20421 ft 383 kts 268°
2026-04-23 13:47 18.46606 -77.15084 20222 ft 360 kts 268°
2026-04-23 13:48 18.46548 -77.17667 20001 ft 353 kts 268°
2026-04-23 13:48 18.46490 -77.20237 19771 ft 359 kts 268°
2026-04-23 13:48 18.46430 -77.22884 19610 ft 361 kts 268°
2026-04-23 13:48 18.46369 -77.25535 19531 ft 362 kts 268°
2026-04-23 13:49 18.46308 -77.28183 19446 ft 361 kts 268°
2026-04-23 13:49 18.46247 -77.30826 19271 ft 361 kts 268°
2026-04-23 13:49 18.46186 -77.33473 19133 ft 359 kts 268°
2026-04-23 13:49 18.46199 -77.36101 18917 ft 360 kts 272°
2026-04-23 13:50 18.46353 -77.38731 18713 ft 358 kts 274°
2026-04-23 13:50 18.46534 -77.41341 18493 ft 358 kts 274°
2026-04-23 13:50 18.46716 -77.43953 18292 ft 357 kts 274°
2026-04-23 13:50 18.46897 -77.46553 18041 ft 355 kts 274°
2026-04-23 13:51 18.47073 -77.49114 17798 ft 354 kts 274°
2026-04-23 13:51 18.47249 -77.51683 17555 ft 351 kts 274°
2026-04-23 13:51 18.47424 -77.54252 17370 ft 353 kts 274°
2026-04-23 13:51 18.47598 -77.56831 17159 ft 350 kts 274°
2026-04-23 13:52 18.47773 -77.59377 16692 ft 349 kts 274°
2026-04-23 13:52 18.47955 -77.61931 16152 ft 350 kts 274°
2026-04-23 13:52 18.48138 -77.64480 15776 ft 346 kts 274°
2026-04-23 13:52 18.48318 -77.66999 15308 ft 345 kts 274°
2026-04-23 13:53 18.48496 -77.69512 14968 ft 341 kts 275°
2026-04-23 13:53 18.48676 -77.71990 14561 ft 339 kts 275°
2026-04-23 13:53 18.48862 -77.74469 14062 ft 341 kts 275°
2026-04-23 13:53 18.49038 -77.76951 13672 ft 338 kts 275°
2026-04-23 13:54 18.49207 -77.79425 13217 ft 336 kts 275°
2026-04-23 13:54 18.49370 -77.81780 12883 ft 316 kts 275°
2026-04-23 13:54 18.49521 -77.84024 12293 ft 301 kts 275°
2026-04-23 13:54 18.49671 -77.86210 11413 ft 299 kts 275°
2026-04-23 13:55 18.49829 -77.88382 10585 ft 296 kts 275°
2026-04-23 13:55 18.49979 -77.90536 9786 ft 294 kts 274°
2026-04-23 13:55 18.50126 -77.92678 8895 ft 292 kts 275°
2026-04-23 13:55 18.50232 -77.94783 8300 ft 286 kts 272°
2026-04-23 13:56 18.50294 -77.96894 7779 ft 290 kts 272°
2026-04-23 13:56 18.50355 -77.98995 7278 ft 283 kts 272°
2026-04-23 13:56 18.50419 -78.01088 6811 ft 289 kts 272°
2026-04-23 13:56 18.50483 -78.03181 6305 ft 286 kts 271°
2026-04-23 13:57 18.50545 -78.05296 5949 ft 288 kts 270°
2026-04-23 13:57 18.50292 -78.07369 5581 ft 286 kts 251°
2026-04-23 13:57 18.49307 -78.09115 5222 ft 281 kts 223°
2026-04-23 13:57 18.47720 -78.10252 4895 ft 275 kts 200°
2026-04-23 13:58 18.45872 -78.10596 4549 ft 267 kts 175°
2026-04-23 13:58 18.44111 -78.10334 4304 ft 244 kts 165°
2026-04-23 13:58 18.42616 -78.09718 4048 ft 220 kts 138°
2026-04-23 13:58 18.41878 -78.08451 3804 ft 199 kts 98°
2026-04-23 13:59 18.42198 -78.07131 3604 ft 186 kts 51°
2026-04-23 13:59 18.43068 -78.06192 3371 ft 174 kts 49°
2026-04-23 13:59 18.43852 -78.05293 3251 ft 158 kts 53°
2026-04-23 13:59 18.44490 -78.04402 2990 ft 148 kts 58°
2026-04-23 14:00 18.44846 -78.03802 2847 ft 138 kts 63°
2026-04-23 14:00 18.45403 -78.02692 2522 ft 124 kts 67°
2026-04-23 14:00 18.45780 -78.01877 2182 ft 124 kts 68°
2026-04-23 14:00 18.46140 -78.01060 1899 ft 120 kts 67°
2026-04-23 14:01 18.46484 -78.00265 1804 ft 120 kts 66°
2026-04-23 14:01 18.46832 -77.99468 1699 ft 121 kts 68°
2026-04-23 14:01 18.47186 -77.98659 1612 ft 120 kts 68°
2026-04-23 14:01 18.47547 -77.97856 1385 ft 129 kts 65°
2026-04-23 14:02 18.47963 -77.96919 754 ft 148 kts 73°
2026-04-23 14:02 18.48360 -77.95933 392 ft 142 kts 68°
2026-04-23 14:02 18.48745 -77.95066 399 ft 122 kts 69°
2026-04-23 14:02 18.49103 -77.94218 400 ft 126 kts 69°
2026-04-23 14:03 18.49468 -77.93371 269 ft 128 kts 69°
2026-04-23 14:03 18.49846 -77.92530 83 ft 125 kts 61°
2026-04-23 14:03 18.50168 -77.91758 22 ft 104 kts 61°
2026-04-23 14:03 18.50403 -77.91239 16 ft 54 kts 65°
2026-04-23 14:04 18.50523 -77.90906 18 ft 44 kts 82°
2026-04-23 14:04 18.50530 -77.90749 16 ft 9 kts 88°
2026-04-23 14:04 18.50528 -77.90678 15 ft 11 kts 103°
2026-04-23 14:04 18.50501 -77.90655 15 ft 1 kts 197°
2026-04-23 14:05 18.50487 -77.90665 15 ft 4 kts 212°
2026-04-23 14:05 18.50465 -77.90690 15 ft 6 kts 234°
2026-04-23 14:05 18.50442 -77.90733 15 ft 8 kts 243°
2026-04-23 14:05 18.50416 -77.90793 15 ft 10 kts 246°
2026-04-23 14:06 18.50375 -77.90888 15 ft 19 kts 246°
2026-04-23 14:06 18.50311 -77.91038 14 ft 26 kts 245°
2026-04-23 14:06 18.50226 -77.91229 14 ft 32 kts 246°
2026-04-23 14:06 18.50105 -77.91349 14 ft 21 kts 227°
2026-04-23 14:07 18.50041 -77.91486 14 ft 22 kts 245°
2026-04-23 14:07 18.49936 -77.91557 14 ft 0 kts 176°
2026-04-23 14:07 18.49933 -77.91557 14 ft 2 kts 179°
2026-04-23 14:08 18.49928 -77.91557 14 ft 0 kts 179°